Weather History for Troyes, France

Change the Weather History Date:

Saturday, March 8, 2014

  Actual Average Record
Temperature  
Mean Temperature 46 °F -  
Max Temperature 66 °F 54 °F 66 °F (2014)
Min Temperature 27 °F 37 °F 27 °F (2014)
Degree Days  
Heating Degree Days 18    
Moisture  
Dew Point 36 °F    
Average Humidity 68    
Maximum Humidity 100    
Minimum Humidity 19    
Precipitation  
Precipitation 0.00 in - - ()
Sea Level Pressure  
Sea Level Pressure 30.35 in    
Wind  
Wind Speed 3 mph ()    
Max Wind Speed 15 mph    
Max Gust Speed -    
Visibility 4.7 miles    
Events Fog    
Averages and records for this station are not official NWS values.
T = Trace of Precipitation, MM = Missing Value Source: Averaged Metar Reports

Daily Weather History Graph

Daily Weather History Graph

Search for Another Location

Airport:

Trip Planner

Search our weather history database for the weather conditions in past years. The results will help you decide how hot, cold, wet, or windy it might be!

Date:

Astronomy

Mar. 08, 2014 Rise Set
Actual Time 7:11 AM CET 6:38 PM CET
Civil Twilight 6:40 AM CET 7:09 PM CET
Nautical Twilight 6:04 AM CET 7:45 PM CET
Astronomical Twilight 5:28 AM CET 8:22 PM CET
Moon 11:10 AM CET (3/8) 1:51 AM CET (3/8)
Length of Visible Light 12h 28m
Length of Day
11h 26m
Waxing Crescent, 49% of the Moon is Illuminated
Mar 8
Waxing Crescent
Mar 8
First Quarter
Mar 16
Full
Mar 24
Last Quarter
Mar 30
New

Hourly Weather History & Observations

Time (CET) Temp. Windchill Dew Point Humidity Pressure Visibility Wind Dir Wind Speed Gust Speed Precip Events Conditions
12:00 AM 37 °F - 32 °F 76% 30.40 in 3 mi Calm Calm - -   Clear
12:00 AM 37.4 °F - 32.0 °F 81% 30.36 in - Calm Calm - N/A   Mist
12:30 AM 33.8 °F - 33.8 °F 100% 30.36 in 2.8 mi SSW 1.2 mph - N/A   Mist
1:00 AM 34 °F - 32 °F 89% 30.41 in 3 mi SSE 2.3 mph - -   Mist
1:00 AM 33.8 °F - 32.0 °F 93% 30.36 in - SSE 2.3 mph - N/A   Mist
1:30 AM 33.8 °F 30.8 °F 32.0 °F 93% 30.39 in - South 3.5 mph - N/A   Mist
2:00 AM 34 °F - 33 °F 94% 30.42 in 3 mi ESE 2.3 mph - -   Mist
2:00 AM 33.8 °F - 33.8 °F 100% 30.39 in - ESE 2.3 mph - N/A   Mist
2:30 AM 33.8 °F - 32.0 °F 93% 30.39 in - Calm Calm - N/A   Mist
3:00 AM 35 °F - 33 °F 92% 30.41 in 3 mi Calm Calm - -   Mist
3:00 AM 33.8 °F - 33.8 °F 100% 30.39 in 3.1 mi Calm Calm - N/A   Mist
3:30 AM 32.0 °F - 30.2 °F 93% 30.36 in - Calm Calm - N/A   Mist
4:00 AM 32 °F - 31 °F 92% 30.41 in 1 mi NW 1.2 mph - -   Mist
4:00 AM 32.0 °F - 30.2 °F 93% 30.36 in 1.3 mi NW 1.2 mph - N/A   Mist
4:30 AM 30.2 °F - 28.4 °F 93% 30.36 in - Calm Calm - N/A   Mist
5:00 AM 32 °F - 31 °F 92% 30.42 in 2 mi North 1.2 mph - -   Mist
5:00 AM 32.0 °F - 30.2 °F 93% 30.39 in - North 1.2 mph - N/A   Mist
5:30 AM 32.0 °F - 30.2 °F 93% 30.39 in - Calm Calm - N/A   Mist
6:00 AM 28 °F - 26 °F 90% 30.43 in 2 mi SSE 1.2 mph - - Fog Fog
6:00 AM 28.4 °F - 26.6 °F 93% 30.39 in 0.6 mi Calm Calm - N/A Fog Light Freezing Fog
6:30 AM 28.4 °F 24.6 °F 28.4 °F 100% 30.39 in - South 3.5 mph - N/A   Mist
7:00 AM 30 °F - 29 °F 97% 30.43 in 2 mi South 3.5 mph - -   Mist
7:00 AM 30.2 °F 26.7 °F 30.2 °F 100% 30.39 in - South 3.5 mph - N/A   Mist
7:30 AM 30.2 °F - 28.4 °F 93% 30.39 in 1.4 mi South 2.3 mph - N/A   Mist
8:00 AM 31 °F - 31 °F 100% 30.45 in 2 mi SSE 3.5 mph - -   Mist
8:00 AM 32.0 °F 28.7 °F 32.0 °F 100% 30.42 in - SSE 3.5 mph - N/A   Mist
8:30 AM 37.4 °F - 37.4 °F 100% 30.42 in - ESE 2.3 mph - N/A   Mist
9:00 AM 41 °F - 36 °F 77% 30.44 in 3 mi East 3.5 mph - -  
9:00 AM 41.0 °F 39.0 °F 35.6 °F 81% 30.42 in - East 3.5 mph - N/A   Mist
9:30 AM 44.6 °F 41.4 °F 37.4 °F 76% 30.42 in 3.1 mi East 5.8 mph - N/A   Mist
10:00 AM 46 °F - 38 °F 67% 30.43 in 3 mi East 6.9 mph - -  
10:00 AM 46.4 °F 42.9 °F 39.2 °F 76% 30.42 in 3.1 mi East 6.9 mph - N/A   Haze
10:30 AM 50.0 °F - 39.2 °F 66% 30.39 in 3.7 mi East 8.1 mph - N/A   Unknown
11:00 AM 51 °F - 40 °F 56% 30.41 in 4 mi East 6.9 mph - -  
11:00 AM 51.8 °F - 41.0 °F 67% 30.39 in 3.7 mi East 6.9 mph - N/A   Unknown
11:30 AM 55.4 °F - 42.8 °F 63% 30.39 in 4.3 mi ESE 9.2 mph - N/A   Unknown
12:00 PM 57 °F - 43 °F 48% 30.39 in 4 mi ESE 9.2 mph - -  
12:00 PM 57.2 °F - 42.8 °F 59% 30.36 in 4.3 mi ESE 9.2 mph - N/A   Unknown
12:30 PM 59.0 °F - 42.8 °F 55% 30.36 in 4.3 mi East 8.1 mph - N/A   Unknown
1:00 PM 60 °F - 42 °F 39% 30.37 in 4 mi East 9.2 mph - -  
1:00 PM 60.8 °F - 41.0 °F 48% 30.36 in 5.0 mi East 9.2 mph - N/A   Unknown
1:30 PM 62.6 °F - 42.8 °F 48% 30.33 in 5.0 mi East 8.1 mph - N/A   Unknown
2:00 PM 64 °F - 37 °F 26% 30.34 in 6 mi East 6.9 mph - -   Clear
2:00 PM 64.4 °F - 37.4 °F 37% 30.33 in 6.2 mi East 6.9 mph - N/A   Unknown
2:30 PM 66.2 °F - 35.6 °F 32% 30.33 in 6.2 mi ESE 11.5 mph - N/A   Unknown
3:00 PM 66 °F - 34 °F 19% 30.32 in 7 mi East 15.0 mph - -   Clear
3:00 PM 66.2 °F - 33.8 °F 30% 30.30 in 6.2 mi East 15.0 mph - N/A   Unknown
3:30 PM 66.2 °F - 35.6 °F 32% 30.30 in 6.2 mi East 9.2 mph - N/A   Unknown
4:00 PM 67 °F - 37 °F 21% 30.30 in 9 mi East 8.1 mph - -   Clear
4:00 PM 66.2 °F - 37.4 °F 35% 30.30 in 6.2 mi East 8.1 mph - N/A   Unknown
4:30 PM 66.2 °F - 35.6 °F 32% 30.30 in 6.2 mi ENE 6.9 mph - N/A   Unknown
5:00 PM 65 °F - 35 °F 22% 30.29 in 9 mi ENE 6.9 mph - -   Clear
5:00 PM 66.2 °F - 35.6 °F 32% 30.27 in 6.2 mi ENE 6.9 mph - N/A   Unknown
5:30 PM 64.4 °F - 39.2 °F 40% 30.27 in 6.2 mi ENE 8.1 mph - N/A   Unknown
6:00 PM 61 °F - 40 °F 35% 30.29 in 9 mi ENE 5.8 mph - -   Clear
6:00 PM 60.8 °F - 41.0 °F 48% 30.27 in 6.2 mi ENE 5.8 mph - N/A   Unknown
6:30 PM 59.0 °F - 39.2 °F 48% 30.27 in 6.2 mi East 9.2 mph - N/A   Unknown
7:00 PM 56 °F - 40 °F 43% 30.30 in 7 mi ENE 4.6 mph - -   Clear
7:00 PM 55.4 °F - 39.2 °F 54% 30.27 in 6.2 mi ENE 4.6 mph - N/A   Unknown
7:30 PM 53.6 °F - 39.2 °F 58% 30.27 in 6.2 mi East 4.6 mph - N/A   Unknown
8:00 PM 53 °F - 39 °F 48% 30.30 in 6 mi East 4.6 mph - -   Clear
8:00 PM 53.6 °F - 39.2 °F 58% 30.27 in 6.2 mi East 4.6 mph - N/A   Unknown
8:30 PM 51.8 °F - 39.2 °F 62% 30.27 in 5.6 mi East 5.8 mph - N/A   Unknown
9:00 PM 48 °F - 38 °F 59% 30.30 in 5 mi East 4.6 mph - -   Clear
9:00 PM 48.2 °F - 37.4 °F 66% 30.27 in 5.0 mi East 4.6 mph - N/A   Unknown
9:30 PM 46.4 °F 44.3 °F 39.2 °F 76% 30.27 in 5.0 mi East 4.6 mph - N/A   Unknown
10:00 PM 43 °F - 36 °F 69% 30.30 in 5 mi SSE 3.5 mph - -   Clear
10:00 PM 42.8 °F 41.1 °F 35.6 °F 76% 30.27 in 5.0 mi SSE 3.5 mph - N/A   Unknown
10:30 PM 41.0 °F 39.0 °F 35.6 °F 81% 30.27 in 3.7 mi SE 3.5 mph - N/A   Unknown
11:00 PM 46 °F - 36 °F 59% 30.31 in 6 mi East 6.9 mph - -   Clear
11:00 PM 46.4 °F 42.9 °F 35.6 °F 66% 30.27 in 6.2 mi East 6.9 mph - N/A   Unknown
11:30 PM 44.6 °F 40.7 °F 35.6 °F 71% 30.27 in 6.2 mi East 6.9 mph - N/A   Unknown